Regional Weather Roundup
Issued by NWS Newport/Morehead, NC

Current Version | Previous Version | Text Only | Print | Product List | Glossary Off
Versions: 1 2 3 4 5 6 7 8 9 10 11 12 13 14 15 16 17 18 19 20 21 22 23 24 25 26 27 28 29 30 31 32 33 34 35 36 37 38 39 40 41 42 43 44 45 46 47 48 49 50
000 ASUS42 KMHX 211922 RWRMHX WEATHER ROUNDUP FOR EASTERN NORTH CAROLINA NATIONAL WEATHER SERVICE NEWPORT/MOREHEAD CITY NC 300 PM EDT THU AUG 21 2014 NOTE: "FAIR" INDICATES FEW OR NO CLOUDS BELOW 12,000 FEET WITH NO SIGNIFICANT WEATHER AND/OR OBSTRUCTIONS TO VISIBILITY NCZ015>017-031-032-045>047-102-103-212000- NORTH COAST CITY SKY/WX TMP DP RH WIND PRES REMARKS EDENTON MOSUNNY 88 72 58 W5 30.00F ELIZABETH CITY MOSUNNY 89 74 60 W6 30.00F KITTY HAWK PTCLDY 88 72 59 NW3 30.01S MANTEO PTSUNNY 88 75 66 S6 30.02S $$ NCZ045>047-081-094-103-104-212000- CENTRAL COAST CITY SKY/WX TMP DP RH WIND PRES REMARKS FRISCO PTSUNNY 84 76 76 SW6 30.04F SWANQUARTER N/A 90 N/A N/A S10 29.97F $$ NCZ095-097-098-100-101-212000- SOUTHERN COAST CITY SKY/WX TMP DP RH WIND PRES REMARKS BEAUFORT PTSUNNY 80 70 71 W5 30.04F CEDAR ISLAND N/A 84 N/A N/A S8G14 30.06F JACKSONVILLE PTSUNNY 93 74 53 W8 30.01F HX 103 NEWPORT NOT AVBL PINEY ISLAND LGT RAIN 84 77 79 S9G21 30.02F WILMINGTON MOSUNNY 86 71 60 S13 30.04S $$ NCZ011>013-027>030-043-044-078>080-089-090>093-098-212000- COASTAL PLAIN CITY SKY/WX TMP DP RH WIND PRES REMARKS AHOSKIE MOSUNNY 85 72 63 CALM 30.02F CLINTON PTSUNNY 91 74 56 NW6 30.04S HX 100 ELIZABETHTOWN PTSUNNY 93 65 40 NW7 30.03F GOLDSBORO MOSUNNY 91 74 58 NW8 30.02S HX 100 GREENVILLE MOSUNNY 90 75 62 N6 30.05S HX 100 HAVELOCK MOSUNNY 86 72 62 S7 30.01F KENANSVILLE MOSUNNY 91 69 48 NW5 30.04S KINSTON SUNNY 91 72 52 W3 30.04F NEW BERN MOSUNNY 94 74 52 W5 30.03S HX 104 RICHLANDS SUNNY 93 72 49 W5 30.01F HX 100 ROANOKE RAPIDS NOT AVBL ROCKY MOUNT MOSUNNY 90 71 53 VRB3 30.04F WASHINGTON MOSUNNY 88 73 61 N5 30.02F WHITEVILLE MOSUNNY 92 73 53 CALM 30.02F HX 100 $$ AMZ130-135-150-152-154-156-158-170-250-252-270-ANZ085-086-088-633-658-670-212000- MARINE OBSERVATIONS STATION/POSITION TIME TEMP WIND PRES WAVE SWELL AIR SEA DIR/SP/G HT/PER HT/PER (UTC) (F) (DEG/KT/KT) (MB) (FT/S) (FT/S) CHESAPEAKE LIGHT 1900 79 340/ 3/ 3 1017.1 BUOY 44014 1900 78 79 120/ 2/ 2 1016.8 2/ 9 2/ 9 DUCK 1900 87 80 100/ 4/ 6 1016.0 2E DUCK 1900 N/A 2/ 6 OREGON INLET 1900 82 82 190/ 8/ 9 1016.7 BUOY 44095 1900 80 N/A 3/ 8 20E OREGON INLET NOT AVBL HATTERAS CG 1900 86 82 190/ 6/ 10 1017.4 DIAMOND BUOY 1900 81 200/ 6/ 8 1017.1 2/ 9 2/ 9 CAPE LOOKOUT 1900 82 160/ 1/ 3 1017.4 BEAUFORT LAB 1900 80 82 270/ 2/ 10 1016.9 30 SE NEW RIVER 1900 84 84 230/ 8/ 8 1016.7 2/ 5 2/ 5 5 SE WRIGHTSVILL 1800 79 83 190/ 10/ 10 N/A BUOY 41002 1757 81 82 290/ 6/ 8 1018.4 3/ 5 2/ 5 BUOY 41004 1900 83 85 240/ 8/ 8 1016.7 2/ 5 2/ 5 $$

USA.gov is the U.S. government's official web portal to all federal, state and local government web resources and services.